This demonstration page uses our WeatherBlox Daily Observations layout. Learn more.

Hourly Observations for May 20, 2016

Temp ( °F °C ) Dew Point ( °F °C ) Humidity (%) Winds ( mph kmh ) Pressure ( in mb ) Visibility ( mi km ) Precip ( " mm )
12:15 am 00:15 Mostly Cloudy 47 8.6 46 7.5 93 93 SSE 10 17 30.03 1017 10 16.0934 0 0
12:35 am 00:35 Cloudy 47 8.5 46 7.5 94 94 SSE 9 15 30 1016 10 16.0934 0 0
12:55 am 00:55 Mostly Cloudy 47 8.5 46 7.6 94 94 SSE 7 11 30 1016 10 16.0934 0 0
1:15 am 01:15 Cloudy 50 9.9 48 9 94 94 SSE 9 15 29.97 1015 10 16.0934 0 0
1:35 am 01:35 Cloudy 50 10.1 48 9 93 93 S 14 22 29.97 1015 10 16.0934 0 0
1:55 am 01:55 Cloudy 50 10.2 48 9 92 92 SSE 9 15 29.97 1015 10 16.0934 0 0
2:15 am 02:15 Cloudy 51 10.4 48 9 91 91 S 14 22 29.97 1015 10 16.0934 0 0
2:35 am 02:35 Cloudy 51 10.5 48 9.1 91 91 S 14 22 29.97 1015 10 16.0934 0 0
2:55 am 02:55 Cloudy 51 10.5 48 9.1 91 91 SSE 13 20 29.97 1015 10 16.0934 0 0
3:15 am 03:15 Cloudy 51 10.5 49 9.2 92 92 S 13 20 29.97 1015 10 16.0934 0 0
3:35 am 03:35 Cloudy 51 10.5 49 9.2 92 92 S 10 17 29.97 1015 7 11.26538 0 0
3:55 am 03:55 Cloudy with Mist and Fog 51 10.3 49 9.3 94 94 S 9 15 29.97 1015 4 6.43736 0 0
4:15 am 04:15 Cloudy 51 10.5 49 9.6 94 94 S 9 15 29.97 1015 7 11.26538 0 0
4:35 am 04:35 Cloudy 51 10.5 49 9.5 94 94 S 8 13 29.97 1015 7 11.26538 0 0
4:55 am 04:55 Cloudy 51 10.6 49 9.6 94 94 S 7 11 29.97 1015 7 11.26538 0 0
5:15 am 05:15 Cloudy 51 10.6 49 9.6 94 94 SSE 6 9 29.97 1015 7 11.26538 0 0
5:35 am 05:35 Cloudy with Mist and Fog 51 10.6 49 9.7 94 94 SSE 7 11 29.97 1015 5 8.0467 0 0
5:55 am 05:55 Cloudy with Light Drizzle 51 10.6 50 9.8 95 95 SSE 8 13 29.97 1015 5 8.0467 0 0
6:15 am 06:15 Cloudy with Mist and Fog 51 10.6 50 9.8 95 95 SSE 6 9 29.97 1015 4 6.43736 0 0
6:35 am 06:35 Cloudy with Mist and Fog 51 10.5 49 9.7 95 95 SSE 7 11 29.97 1015 4 6.43736 0 0
6:55 am 06:55 Cloudy with Mist and Fog 51 10.5 50 9.8 95 95 SSE 9 15 29.97 1015 4 6.43736 0 0
7:15 am 07:15 Cloudy with Mist and Fog 51 10.6 50 10 96 96 SSE 7 11 30 1016 4 6.43736 0 0
7:35 am 07:35 Cloudy with Mist and Fog 51 10.7 50 10 95 95 SSE 8 13 30 1016 5 8.0467 0 0
7:55 am 07:55 Cloudy with Mist and Fog 52 11 50 10.1 94 94 SSE 8 13 30 1016 5 8.0467 0 0
8:15 am 08:15 Cloudy 52 11.2 51 10.3 94 94 SSE 10 17 30 1016 7 11.26538 0 0
8:35 am 08:35 Cloudy 52 11.3 51 10.3 94 94 SSE 10 17 30 1016 7 11.26538 0 0
8:55 am 08:55 Cloudy 53 11.5 51 10.5 94 94 SSE 12 19 30 1016 7 11.26538 0 0
9:15 am 09:15 Cloudy 54 12 51 10.5 91 91 SSE 13 20 30 1016 10 16.0934 0 0
9:35 am 09:35 Cloudy 54 12.2 51 10.3 88 88 SE 12 19 30 1016 10 16.0934 0 0
9:55 am 09:55 Cloudy 55 12.6 51 10.4 87 87 SSE 13 20 29.97 1015 10 16.0934 0 0
10:15 am 10:15 Cloudy 56 13.1 50 10.1 82 82 SE 15 24 29.97 1015 10 16.0934 0 0
10:35 am 10:35 Cloudy 55 13 50 10 82 82 SSE 9 15 29.97 1015 10 16.0934 0 0
10:55 am 10:55 Cloudy 56 13.3 50 9.8 80 80 SSE 12 19 29.97 1015 10 16.0934 0 0
11:15 am 11:15 Cloudy 56 13.3 49 9.6 78 78 SSE 9 15 30 1016 10 16.0934 0 0
11:35 am 11:35 Cloudy 56 13.4 49 9.6 78 78 SSE 12 19 30 1016 10 16.0934 0 0
11:55 am 11:55 Cloudy 56 13.2 50 10 81 81 SSE 12 19 30 1016 10 16.0934 0 0
12:15 pm 12:15 Cloudy 57 13.7 50 10.1 79 79 SSE 14 22 29.97 1015 10 16.0934 0 0
12:35 pm 12:35 Cloudy 57 13.7 50 10 79 79 SSE 12 19 29.97 1015 10 16.0934 0 0
12:55 pm 12:55 Cloudy 58 14.5 51 10.3 76 76 SE 14 22 29.97 1015 10 16.0934 0 0
1:15 pm 13:15 Cloudy 58 14.4 51 10.3 77 77 SSE 16 26 29.97 1015 10 16.0934 0 0
1:35 pm 13:35 Cloudy 58 14.7 50 10.1 74 74 SSE 14 22 29.97 1015 10 16.0934 0 0
1:55 pm 13:55 Cloudy 59 15.1 51 10.5 74 74 SSE 15 24 29.97 1015 10 16.0934 0 0
2:15 pm 14:15 Cloudy 58 14.3 51 10.6 79 79 SSE 14 22 29.97 1015 10 16.0934 0 0
2:35 pm 14:35 Cloudy 59 14.9 51 10.6 76 76 SSE 13 20 29.97 1015 10 16.0934 0 0
2:55 pm 14:55 Cloudy 59 15.1 51 10.5 74 74 SSE 13 20 29.97 1015 10 16.0934 0 0
3:15 pm 15:15 Cloudy 60 15.6 51 10.7 73 73 SSE 14 22 29.97 1015 10 16.0934 0 0
3:35 pm 15:35 Cloudy 60 15.4 51 10.6 73 73 SSE 13 20 29.97 1015 10 16.0934 0 0
3:55 pm 15:55 Cloudy 60 15.7 51 10.8 73 73 SSE 13 20 29.97 1015 10 16.0934 0 0
4:15 pm 16:15 Cloudy 60 15.8 51 10.8 72 72 SSE 12 19 29.97 1015 10 16.0934 0 0
4:35 pm 16:35 Cloudy 61 16 51 10.8 71 71 SSE 14 22 29.94 1014 10 16.0934 0 0
4:55 pm 16:55 Cloudy 61 16 52 10.9 72 72 SE 15 24 29.94 1014 10 16.0934 0 0
5:15 pm 17:15 Cloudy 62 16.4 52 11 71 71 SSE 12 19 29.94 1014 10 16.0934 0 0
5:35 pm 17:35 Cloudy 61 16.3 52 11.1 72 72 SSE 14 22 29.94 1014 10 16.0934 0 0
5:55 pm 17:55 Cloudy 61 16.3 51 10.6 69 69 SSE 14 22 29.91 1013 10 16.0934 0 0
6:15 pm 18:15 Cloudy 61 16.3 51 10.7 70 70 SSE 12 19 29.94 1014 10 16.0934 0 0
6:35 pm 18:35 Cloudy 61 16.3 51 10.8 70 70 SSE 15 24 29.94 1014 10 16.0934 0 0
6:55 pm 18:55 Cloudy 62 16.5 51 10.7 69 69 SSE 14 22 29.94 1014 10 16.0934 0 0
7:15 pm 19:15 Cloudy 61 16.2 52 11 71 71 SE 13 20 29.94 1014 10 16.0934 0 0
7:35 pm 19:35 Cloudy 61 16 52 11.1 73 73 SE 13 20 29.94 1014 10 16.0934 0 0
7:55 pm 19:55 Cloudy 61 16 52 11.2 73 73 SSE 10 17 29.94 1014 10 16.0934 0 0
8:15 pm 20:15 Cloudy 60 15.8 52 11.3 75 75 SE 10 17 29.97 1015 10 16.0934 0 0
8:35 pm 20:35 Cloudy 60 15.6 53 11.5 77 77 SE 13 20 29.97 1015 10 16.0934 0 0
8:55 pm 20:55 Cloudy 60 15.3 53 11.5 78 78 SE 10 17 29.97 1015 10 16.0934 0 0
9:15 pm 21:15 Cloudy 59 15.2 53 11.5 79 79 SE 12 19 29.97 1015 10 16.0934 0 0
9:35 pm 21:35 Cloudy 59 14.8 53 11.6 81 81 SE 10 17 30 1016 10 16.0934 0 0
9:55 pm 21:55 Mostly Cloudy 58 14.5 53 11.6 83 83 SE 14 22 30 1016 10 16.0934 0 0
10:15 pm 22:15 Cloudy 58 14.2 53 11.6 84 84 SE 12 19 30 1016 10 16.0934 0 0
10:35 pm 22:35 Cloudy 58 14.2 53 11.7 85 85 SE 13 20 30 1016 10 16.0934 0 0
10:55 pm 22:55 Cloudy 58 14.2 53 11.7 85 85 SE 12 19 30.03 1017 10 16.0934 0 0
11:15 pm 23:15 Cloudy 58 14.3 53 11.7 85 85 SE 13 20 30.03 1017 10 16.0934 0 0
11:35 pm 23:35 Cloudy 57 14.1 53 11.6 85 85 SE 12 19 30.03 1017 10 16.0934 0 0
11:55 pm 23:55 Cloudy 57 14 53 11.8 87 87 SE 10 17 30.03 1017 10 16.0934 0 0

Powered by AerisWeather